Regional Weather Roundup
Issued by NWS

Home | Current Version | Previous Version | Graphics & Text | Print | Product List | Glossary On
Versions: 1 2 3 4 5 6 7 8 9 10 11 12 13 14 15 16 17 18 19 20 21 22 23 24 25 26 27 28 29 30 31 32 33 34 35 36 37 38 39 40 41 42 43 44 45 46 47 48 49 50
000
ASUS43 KDMX 020907
RWRIA

WEATHER ROUNDUP FOR IOWA
NATIONAL WEATHER SERVICE DES MOINES IA
400 AM CDT TUE SEP 02 2014

NOTE: "FAIR" INDICATES FEW OR NO CLOUDS BELOW 12,000 FEET WITH NO
SIGNIFICANT WEATHER AND/OR OBSTRUCTIONS TO VISIBILITY.

* - THESE STATIONS ARE NOT NWS STATIONS...THUS NOT UNDER NWS
QUALITY CONTROL.  THEY ALSO DO NOT REPORT WEATHER SUCH
AS PRECIPITATION OR FOG.

IAZ001>003-012>014-020>022-031>034-043>046-021000-
   NORTHWEST IOWA

CITY           SKY/WX    TMP DP  RH WIND       PRES   REMARKS
CARROLL *      CLEAR     57  57 100 S5        29.91R
CHEROKEE *     MOCLDY    59  57  94 CALM      29.92R
DENISON *      CLEAR     57  57 100 W5        29.91R FOG
LE MARS *      CLEAR     57  55  94 S5        29.92F
ORANGE CITY *  PTCLDY    59  55  88 NW5       29.92S
SHELDON *      MOCLDY    57  57 100 SW5       29.91S
SIOUX CITY     CLEAR     57  55  93 VRB3        N/A
SPENCER        LGT RAIN  61  57  87 W7        29.92R
STORM LAKE *   PTCLDY    57  57 100 N5        29.91R
$$

IAZ055>058-069>071-079>083-090>094-021000-
   SOUTHWEST IOWA

CITY           SKY/WX    TMP DP  RH WIND       PRES   REMARKS
ATLANTIC *     PTCLDY    59  57  94 CALM      29.91R
AUDUBON *      CLEAR     59  57  94 CALM      29.92R
CLARINDA *     FOG       61  61 100 CALM      29.93S VSB 0
COUNCIL BLFS * CLEAR     59  59 100 W5        29.92S
CRESTON *      CLEAR     61  61 100 S6        29.91F
HARLAN  *      CLEAR     57  57 100 W6        29.96R
LAMONI         PTCLDY    63  62  97 NW3       29.91F
RED OAK *      PTCLDY    61  59  94 NW6       29.92R
SHENANDOAH *   CLEAR     61  61 100 CALM      29.93R
$$

IAZ047>049-059>061-072>074-084-021000-
   CENTRAL IOWA

CITY           SKY/WX    TMP DP  RH WIND       PRES   REMARKS
AMES           CLOUDY    61  58  90 NW6       29.88F
ANKENY *       PTCLDY    64  61  88 CALM      29.87F
CHARITON *     CLEAR     63  63 100 SW5       29.91F
DES MOINES     CLOUDY    65  58  78 CALM      29.87F
GRINNELL*      MOCLDY    63  61  94 CALM      29.89F
KNOXVILLE *    MOCLDY    63  61  94 SW5       29.88F
MARSHALLTOWN   MOCLDY    64  61  90 W9        29.90R
PELLA *        MOCLDY    63  63 100 W5        29.90F FOG
PERRY *          N/A     59  57  94 SW5       29.90R
$$

IAZ004>006-015-016-023>025-035-036-021000-
   NORTH CENTRAL IOWA

CITY           SKY/WX    TMP DP  RH WIND       PRES   REMARKS
ALGONA *       CLOUDY    61  59  94 W10G17    29.91R
CLARION *      LGT RAIN  61  59  94 NW8       29.90F
ESTHERVILLE    CLOUDY    60  57  89 W6        29.91R
FORT DODGE *   CLOUDY    61  55  82 N5        29.90R
MASON CITY     CLOUDY    64  60  87 SW17G25   29.91R
FOREST CITY *  MOCLDY    61  61 100 SW10      29.90R
IOWA FALLS *   LGT RAIN  63  59  88 NW7       29.89F
$$

IAZ007>011-017>019-026>030-037>042-050>054-066-021000-
   NORTHEAST IOWA

CITY           SKY/WX    TMP DP  RH WIND       PRES   REMARKS
CEDAR RAPIDS   CLEAR     61  61 100 CALM      29.87F
CHARLES CITY * PTCLDY    59  57  94 S3        29.89R
CLINTON *        N/A     57  57 100 CALM      29.90S VSB 1/4
DECORAH *      CLEAR     59  57  94 S3        29.86F
DUBUQUE        CLEAR     59  59 100 SW3       29.89F
MONTICELLO *   CLEAR     59  59 100 CALM      29.88F
OELWEIN *      CLEAR     57  55  94 S5        29.89S FOG
WATERLOO       CLEAR     59  58  96 CALM      29.87S
$$

IAZ064-065-067-068-078-021000-
   EAST CENTRAL IOWA

CITY           SKY/WX    TMP DP  RH WIND       PRES   REMARKS
DAVENPORT      MOCLDY    62  60  93 S5        29.89S FOG
IOWA CITY      PTCLDY    63  62  97 CALM      29.89S
MT. PLEASANT * MOCLDY    64  64 100 W3        29.90S FOG
MUSCATINE *    CLEAR     64  63  94 S5        29.88F FOG
QUAD CITIES    MOCLDY    65  64  97 CALM      29.88S
$$

IAZ062-063-075>077-085>089-095>099-021000-
   SOUTHEAST IOWA

CITY           SKY/WX    TMP DP  RH WIND       PRES   REMARKS
BURLINGTON     CLOUDY    67  66  97 S5        29.89R
FAIRFIELD *    CLEAR     63  63 100 W5        29.90F FOG
FORT MADISON * PTCLDY    70  68  94 CALM      29.91S
KEOKUK *       MOCLDY    70  68  94 SW6       29.90R
OSKALOOSA *      N/A     61  59  94 SW3       29.90F FOG
CENTERVILLE *  CLEAR     59  59 100 CALM      29.92F
OTTUMWA        PTCLDY    62  62 100 SW3       29.90S FOG
WASHINGTON *   CLEAR     63  63 100 SW3       29.90S FOG
$$

ABBREVIATIONS USED IN REMARKS
   TC - TEMPERATURES IN CELSIUS
  WCI - WIND CHILL INDEX
   HX - HEAT INDEX
  VSB - VISIBILITY
$$




USA.gov is the U.S. government's official web portal to all federal, state and local government web resources and services.